Location: Castifao
(42.5040°N, 9.1124°E)
Time: 17:41:11
(UTC+00:00)

Cosmos 1842 Rocket - Pass Details

Date: 23 January 2020
Orbit: 606 x 633 km, 82.5° (Epoch: 22 February)

Event Time Altitude Azimuth Distance (km) Brightness Sun altitude
Rises 17:55:16 0° 360° (N) 2,928 6.9 -16.6°
Reaches altitude 10° 17:57:40 10° 9° (N) 2,019 6.0 -17.0°
Enters shadow 18:01:42 35° 73° (ENE) 1,016 4.1 -17.7°
